Location: Pedholt
(56.0260°N, 10.2097°E)
Time: 02:53:21
(UTC+00:00)

SR - Pass Details

Date: 30 July 2021
Orbit: 581 x 873 km, 66.7° (Epoch: 27 September)

Event Time Altitude Azimuth Distance (km) Brightness Sun altitude
Rises 10:35:24 0° 295° (WNW) 3,324 ? 51.2°
Reaches altitude 10° 10:38:20 10° 308° (NW) 2,343 ? 51.3°
Maximum altitude 10:42:45 25° 3° (N) 1,461 ? 51.5°
Drops below altitude 10° 10:46:53 10° 60° (ENE) 2,178 ? 51.7°
Sets 10:49:31 0° 73° (ENE) 3,042 ? 51.8°
